Weather Roundup
Issued by NWS

Home | Current Version | Previous Version | Text Only | Print | Product List | Glossary On
Versions: 1 2 3 4 5 6 7 8 9 10 11 12 13 14 15 16 17 18 19 20 21 22 23 24 25 26 27 28 29 30 31 32 33 34 35 36 37 38 39 40 41 42 43 44 45 46 47 48 49 50
000
NZUS93 KARX 212359
HRRWXR

CURRENT HOURLY OBSERVATIONS ACROSS
MUCH OF THE UPPER MISSISSIPPI VALLEY
NATIONAL WEATHER SERVICE LA CROSSE WI
700 PM CDT THU AUG 21 2014


...SOUTHEAST MINNESOTA...


CITY           SKY/WX    TMP DP  RH WIND       PRES   REMARKS
ROCHESTER      MOSUNNY   80  72  76 S9        29.86S
ROCHESTER/MAYO FAIR      82  71  69 S8        29.85S
WINONA         CLOUDY    81  72  74 CALM      29.85R
AUSTIN         MOSUNNY   82  72  69 SW7       29.84F
ALBERT LEA     SUNNY     84  72  65 SW5       29.83F
DODGE CENTER   MOSUNNY   81  72  74 SW7       29.85S
PRESTON        CLOUDY    79  75  87 S7        29.87F
OWATONNA       MOSUNNY   82  72  69 S6        29.83S
FARIBAULT      CLOUDY    86  70  58 S3        29.82S HX  90
$$

...ELSEWHERE IN MINNESOTA...


CITY           SKY/WX    TMP DP  RH WIND       PRES   REMARKS
MINNEAPOLIS    MOSUNNY   84  73  69 CALM      29.80R HX  90
INTNL FALLS    CLOUDY    68  63  84 E7        29.90S
DULUTH         CLOUDY    64  60  87 E12       29.90S
RED WING       CLOUDY    82  73  74 SE7       29.79F
REDWOOD FALLS  MOSUNNY   84  73  69 N7        29.81S HX  90
MANKATO        PTSUNNY   82  72  69 S6        29.80S
WORTHINGTON    MOSUNNY   84  23  10 NW10      29.85S
FAIRMONT       MOSUNNY   84  72  65 MISG      29.83R
$$

...SOUTHWEST WISCONSIN...


CITY           SKY/WX    TMP DP  RH WIND       PRES   REMARKS
LA CROSSE      MOCLDY    82  72  71 S10       29.85S
PRAIRIE DU CHI CLOUDY    78  71  78 SE3       29.88S
BOSCOBEL       CLOUDY    79  72  79 SW6       29.89S
LONE ROCK      NOT AVBL
PLATTEVILLE    CLOUDY    76  73  93 CALM      29.90R
FORT MC COY    PTCLDY    80  69  68 S7        29.88S
VIROQUA        FAIR      79  73  81 SW7       29.90S
WIS DELLS      CLOUDY    76  70  81 S3        29.91R
$$

...ELSEWHERE IN WISCONSIN...


CITY           SKY/WX    TMP DP  RH WIND       PRES   REMARKS
MILWAUKEE      MOCLDY    74  69  85 SE6       29.92R
MADISON        MOCLDY    77  71  82 SE6       29.90S
GREEN BAY      CLOUDY    69  65  86 E7        29.93F
EAU CLAIRE     NOT AVBL
BLACK RVR FLS  FAIR      79  71  76 CALM      29.86S
MEDFORD        CLOUDY    68  66  95 E6        29.92R FOG
WAUSAU         CLOUDY    68  66  93 SE8       29.91R FOG
WIS RAPIDS     PTCLDY    76  69  79 SE5       29.91S
MARSHFIELD     CLOUDY    76  70  82 SE7       29.90S
RICE LAKE      LGT RAIN  72  69  91 E3        29.88R
$$

...NORTHEAST IOWA...


CITY           SKY/WX    TMP DP  RH WIND       PRES   REMARKS
WATERLOO       MOSUNNY   82  71  69 S9        29.86S
DUBUQUE        CLOUDY    75  71  87 SW9       29.89R
DECORAH        PTCLDY    79  72  78 S8G15     29.89R
MASON CITY     SUNNY     84  72  67 SW13      29.87S
CHARLES CITY   PTSUNNY   82  73  74 S9        29.88R
OELWEIN        PTCLDY    79  72  78 S14       29.90S
$$

...ELSEWHERE IN IOWA...


CITY           SKY/WX    TMP DP  RH WIND       PRES   REMARKS
DES MOINES     MOSUNNY   86  75  69 S9        29.84F HX  95
IOWA CITY      MOCLDY    80  76  87 S9        29.89S
FORT DODGE     SUNNY     82  73  74 SW10      29.86S
MARSHALLTOWN   PTSUNNY   83  76  79 S7        29.86S HX  91
CEDAR RAPIDS   PTCLDY    80  74  81 S9        29.87S
$$

...NORTHERN ILLINOIS...


CITY           SKY/WX    TMP DP  RH WIND       PRES   REMARKS
CHICAGO-OHARE  MOCLDY    76  70  82 SE10      29.90S
DUPAGE         PTCLDY    77  74  90 S6        29.90S
CHICAGO-MIDWAY MOCLDY    78  74  87 SE8       29.90S
MOLINE         MOCLDY    82  74  76 SE3       29.88F
ROCKFORD       CLOUDY    77  73  87 S3        29.91S
STERLING       CLOUDY    79  73  83 SW3       29.87F
PEORIA         CLEAR     86  75  69 S5        29.90F HX  95
$$

NOTE: "FAIR" INDICATES FEW OR NO CLOUDS BELOW 12,000 FEET WITH NO
SIGNIFICANT WEATHER AND/OR OBSTRUCTIONS TO VISIBILITY. WIND
SPEEDS ARE IN MILES-PER-HOUR.



USA.gov is the U.S. government's official web portal to all federal, state and local government web resources and services.